PWSweather.com
Personal Weather Stations
Station Observations
GEELONGWX1
Bell Post Hill, GeelongAU

Bell Post HillGeelongAU

Lat: -38.101, Lon: 144.326

Elevation: 204

Station Type: Davis Vantage Pro2

http://www.geelongweather.com

High Low Average
Temperature 58.7°F14.8°F 43.8°F6.6°F 49.1°F9.5°F
Dew Point 48.8°F9.3°F 37.3°F2.9°F 41.3°F5.2°F
Winds 8.7 mph WSW14.0 mph WSW Calm Calm 3.1 mph 5.0 mph
Wind Gusts 22.0 mph35.4 mph -- 6.1 mph9.8 mph
Humidity 81% 59% 75%
Pressure 30.32 in1026.80 in 30.01 in1016.30 in -
Precipitation 0.17 in4.30 in - -
Hour Temp Dew Point Humidity Winds Wind Gusts Pressure Precip Precip Rate Daily Precip Total
12:00 AM 45.9°F7.7°C 39.8°F4.3°C 79% Calm Calm -- 30.01 in1016.3 mb 0.00 in0.0 mm 0.00 in/hr0.0 mm/hr 0.00 in0.0 mm
12:10 AM 45.9°F7.7°C 39.8°F4.3°C 79% Calm Calm -- 30.01 in1016.3 mb 0.00 in0.0 mm 0.00 in/hr0.0 mm/hr 0.00 in0.0 mm
12:20 AM 45.9°F7.7°C 39.8°F4.3°C 79% 0.3 mph NW0.5 kmh NW -- 30.01 in1016.3 mb 0.00 in0.0 mm 0.00 in/hr0.0 mm/hr 0.00 in0.0 mm
12:30 AM 45.8°F7.7°C 39.7°F4.3°C 79% Calm Calm -- 30.02 in1016.6 mb 0.00 in0.0 mm 0.00 in/hr0.0 mm/hr 0.00 in0.0 mm
12:40 AM 45.7°F7.6°C 39.2°F4.0°C 78% 2.6 mph NNW4.2 kmh NNW 5.0 mph8.0 kmh 30.02 in1016.6 mb 0.00 in0.0 mm 0.00 in/hr0.0 mm/hr 0.00 in0.0 mm
12:50 AM 45.7°F7.6°C 39.2°F4.0°C 78% 2.9 mph NW4.7 kmh NW 6.0 mph9.7 kmh 30.02 in1016.6 mb 0.00 in0.0 mm 0.00 in/hr0.0 mm/hr 0.00 in0.0 mm
01:00 AM 46.0°F7.8°C 39.5°F4.2°C 78% 3.2 mph NNW5.1 kmh NNW 7.0 mph11.3 kmh 30.02 in1016.6 mb 0.00 in0.0 mm 0.00 in/hr0.0 mm/hr 0.00 in0.0 mm
01:10 AM 46.2°F7.9°C 39.7°F4.3°C 78% 4.3 mph N6.9 kmh N 8.0 mph12.9 kmh 30.02 in1016.6 mb 0.00 in0.0 mm 0.00 in/hr0.0 mm/hr 0.00 in0.0 mm
01:20 AM 46.2°F7.9°C 39.8°F4.3°C 78% 5.3 mph N8.5 kmh N 8.0 mph12.9 kmh 30.02 in1016.6 mb 0.00 in0.0 mm 0.00 in/hr0.0 mm/hr 0.00 in0.0 mm
01:30 AM 46.3°F7.9°C 39.8°F4.3°C 78% 3.3 mph NW5.3 kmh NW 6.0 mph9.7 kmh 30.02 in1016.6 mb 0.00 in0.0 mm 0.00 in/hr0.0 mm/hr 0.00 in0.0 mm
01:40 AM 46.2°F7.9°C 39.7°F4.3°C 78% 3.3 mph NNW5.3 kmh NNW 6.0 mph9.7 kmh 30.02 in1016.6 mb 0.00 in0.0 mm 0.00 in/hr0.0 mm/hr 0.00 in0.0 mm
01:50 AM 45.9°F7.7°C 39.4°F4.1°C 78% Calm Calm 1.0 mph1.6 kmh 30.02 in1016.6 mb 0.00 in0.0 mm 0.00 in/hr0.0 mm/hr 0.00 in0.0 mm
02:00 AM 45.5°F7.5°C 39.0°F3.9°C 78% 2.6 mph NNW4.2 kmh NNW 5.0 mph8.0 kmh 30.02 in1016.6 mb 0.00 in0.0 mm 0.00 in/hr0.0 mm/hr 0.00 in0.0 mm
02:10 AM 45.2°F7.3°C 38.7°F3.7°C 78% 3.3 mph NW5.3 kmh NW 5.0 mph8.0 kmh 30.03 in1016.9 mb 0.00 in0.0 mm 0.00 in/hr0.0 mm/hr 0.00 in0.0 mm
02:20 AM 45.0°F7.2°C 38.6°F3.7°C 78% 2.8 mph NW4.5 kmh NW 5.0 mph8.0 kmh 30.03 in1016.9 mb 0.01 in0.3 mm 0.06 in/hr1.5 mm/hr 0.01 in0.3 mm
02:30 AM 45.0°F7.2°C 38.6°F3.7°C 78% 1.2 mph NW1.9 kmh NW 7.0 mph11.3 kmh 30.04 in1017.3 mb 0.00 in0.0 mm 0.00 in/hr0.0 mm/hr 0.01 in0.3 mm
02:40 AM 44.9°F7.2°C 38.5°F3.6°C 78% 0.2 mph NNW0.3 kmh NNW -- 30.04 in1017.3 mb 0.00 in0.0 mm 0.00 in/hr0.0 mm/hr 0.01 in0.3 mm
02:50 AM 45.0°F7.2°C 38.6°F3.7°C 78% 3.5 mph NNW5.6 kmh NNW 6.0 mph9.7 kmh 30.03 in1016.9 mb 0.01 in0.3 mm 0.06 in/hr1.5 mm/hr 0.02 in0.5 mm
03:00 AM 45.1°F7.3°C 38.6°F3.7°C 78% 0.3 mph NNW0.5 kmh NNW 5.0 mph8.0 kmh 30.04 in1017.3 mb 0.00 in0.0 mm 0.00 in/hr0.0 mm/hr 0.02 in0.5 mm
03:10 AM 45.1°F7.3°C 38.6°F3.7°C 78% 3.2 mph N5.1 kmh N 5.0 mph8.0 kmh 30.04 in1017.3 mb 0.00 in0.0 mm 0.00 in/hr0.0 mm/hr 0.02 in0.5 mm
03:20 AM 44.9°F7.2°C 38.5°F3.6°C 78% 1.8 mph N2.9 kmh N 3.0 mph4.8 kmh 30.04 in1017.3 mb 0.00 in0.0 mm 0.00 in/hr0.0 mm/hr 0.02 in0.5 mm
03:30 AM 44.7°F7.1°C 38.3°F3.5°C 78% 1.0 mph NW1.6 kmh NW 6.0 mph9.7 kmh 30.04 in1017.3 mb 0.00 in0.0 mm 0.00 in/hr0.0 mm/hr 0.02 in0.5 mm
03:40 AM 44.7°F7.1°C 38.3°F3.5°C 78% 3.5 mph NW5.6 kmh NW 5.0 mph8.0 kmh 30.05 in1017.6 mb 0.04 in1.0 mm 0.24 in/hr6.1 mm/hr 0.06 in1.5 mm
03:50 AM 44.9°F7.2°C 38.5°F3.6°C 78% 3.0 mph NW4.8 kmh NW 4.0 mph6.4 kmh 30.05 in1017.6 mb 0.00 in0.0 mm 0.00 in/hr0.0 mm/hr 0.06 in1.5 mm
04:00 AM 44.8°F7.1°C 38.4°F3.6°C 78% 2.6 mph NW4.2 kmh NW 4.0 mph6.4 kmh 30.05 in1017.6 mb 0.00 in0.0 mm 0.00 in/hr0.0 mm/hr 0.06 in1.5 mm
04:10 AM 44.5°F6.9°C 38.1°F3.4°C 78% 3.2 mph NW5.1 kmh NW 4.0 mph6.4 kmh 30.05 in1017.6 mb 0.00 in0.0 mm 0.00 in/hr0.0 mm/hr 0.06 in1.5 mm
04:20 AM 44.4°F6.9°C 38.0°F3.3°C 78% 4.3 mph NW6.9 kmh NW 6.0 mph9.7 kmh 30.06 in1017.9 mb 0.00 in0.0 mm 0.00 in/hr0.0 mm/hr 0.06 in1.5 mm
04:30 AM 44.4°F6.9°C 38.0°F3.3°C 78% 3.0 mph N4.8 kmh N 6.0 mph9.7 kmh 30.07 in1018.3 mb 0.03 in0.8 mm 0.18 in/hr4.6 mm/hr 0.09 in2.3 mm
04:40 AM 44.5°F6.9°C 38.1°F3.4°C 78% 2.6 mph NNW4.2 kmh NNW 5.0 mph8.0 kmh 30.06 in1017.9 mb 0.01 in0.3 mm 0.06 in/hr1.5 mm/hr 0.09 in2.3 mm
04:50 AM 44.4°F6.9°C 38.0°F3.3°C 78% 2.3 mph NNW3.7 kmh NNW 5.0 mph8.0 kmh 30.07 in1018.3 mb 0.00 in0.0 mm 0.00 in/hr0.0 mm/hr 0.09 in2.3 mm
05:00 AM 44.2°F6.8°C 37.8°F3.2°C 78% 2.6 mph NW4.2 kmh NW 5.0 mph8.0 kmh 30.07 in1018.3 mb 0.00 in0.0 mm 0.00 in/hr0.0 mm/hr 0.09 in2.3 mm
05:10 AM 44.1°F6.7°C 37.7°F3.2°C 78% 2.2 mph N3.5 kmh N 3.0 mph4.8 kmh 30.07 in1018.3 mb 0.00 in0.0 mm 0.00 in/hr0.0 mm/hr 0.09 in2.3 mm
05:20 AM 44.1°F6.7°C 37.7°F3.2°C 78% Calm Calm 6.0 mph9.7 kmh 30.07 in1018.3 mb 0.00 in0.0 mm 0.00 in/hr0.0 mm/hr 0.09 in2.3 mm
05:30 AM 44.2°F6.8°C 37.8°F3.2°C 78% 5.1 mph NW8.2 kmh NW 9.0 mph14.5 kmh 30.08 in1018.6 mb 0.00 in0.0 mm 0.00 in/hr0.0 mm/hr 0.09 in2.3 mm
05:40 AM 44.4°F6.9°C 37.6°F3.1°C 77% 1.5 mph N2.4 kmh N 4.0 mph6.4 kmh 30.09 in1019.0 mb 0.00 in0.0 mm 0.00 in/hr0.0 mm/hr 0.09 in2.3 mm
05:50 AM 44.4°F6.9°C 38.0°F3.3°C 78% 3.2 mph NW5.1 kmh NW 6.0 mph9.7 kmh 30.09 in1019.0 mb 0.00 in0.0 mm 0.00 in/hr0.0 mm/hr 0.09 in2.3 mm
06:00 AM 44.2°F6.8°C 37.8°F3.2°C 78% 4.3 mph NW6.9 kmh NW 6.0 mph9.7 kmh 30.09 in1019.0 mb 0.00 in0.0 mm 0.00 in/hr0.0 mm/hr 0.09 in2.3 mm
06:10 AM 44.0°F6.7°C 37.6°F3.1°C 78% 3.0 mph NW4.8 kmh NW 6.0 mph9.7 kmh 30.10 in1019.3 mb 0.00 in0.0 mm 0.00 in/hr0.0 mm/hr 0.09 in2.3 mm
06:20 AM 44.0°F6.7°C 37.6°F3.1°C 78% 2.7 mph WNW4.3 kmh WNW 5.0 mph8.0 kmh 30.11 in1019.6 mb 0.00 in0.0 mm 0.00 in/hr0.0 mm/hr 0.09 in2.3 mm
06:30 AM 43.9°F6.6°C 37.5°F3.1°C 78% 3.5 mph NW5.6 kmh NW 5.0 mph8.0 kmh 30.11 in1019.6 mb 0.00 in0.0 mm 0.00 in/hr0.0 mm/hr 0.09 in2.3 mm
06:40 AM 43.9°F6.6°C 37.5°F3.1°C 78% 3.4 mph NW5.5 kmh NW 5.0 mph8.0 kmh 30.11 in1019.6 mb 0.00 in0.0 mm 0.00 in/hr0.0 mm/hr 0.09 in2.3 mm
06:50 AM 44.0°F6.7°C 37.6°F3.1°C 78% 2.3 mph NW3.7 kmh NW 4.0 mph6.4 kmh 30.11 in1019.6 mb 0.00 in0.0 mm 0.00 in/hr0.0 mm/hr 0.09 in2.3 mm
07:00 AM 44.1°F6.7°C 37.3°F2.9°C 77% 4.0 mph NW6.4 kmh NW 6.0 mph9.7 kmh 30.12 in1020.0 mb 0.00 in0.0 mm 0.00 in/hr0.0 mm/hr 0.09 in2.3 mm
07:10 AM 44.2°F6.8°C 37.4°F3.0°C 77% 4.3 mph NW6.9 kmh NW 5.0 mph8.0 kmh 30.12 in1020.0 mb 0.00 in0.0 mm 0.00 in/hr0.0 mm/hr 0.09 in2.3 mm
07:20 AM 44.4°F6.9°C 37.6°F3.1°C 77% 3.0 mph NW4.8 kmh NW 6.0 mph9.7 kmh 30.13 in1020.3 mb 0.01 in0.3 mm 0.06 in/hr1.5 mm/hr 0.10 in2.5 mm
07:30 AM 44.8°F7.1°C 38.0°F3.3°C 77% Calm Calm -- 30.13 in1020.3 mb 0.00 in0.0 mm 0.00 in/hr0.0 mm/hr 0.10 in2.5 mm
07:40 AM 44.9°F7.2°C 38.1°F3.4°C 77% 1.1 mph NW1.8 kmh NW 2.0 mph3.2 kmh 30.13 in1020.3 mb 0.00 in0.0 mm 0.00 in/hr0.0 mm/hr 0.10 in2.5 mm
07:50 AM 45.7°F7.6°C 38.9°F3.8°C 77% 4.1 mph WNW6.6 kmh WNW 6.0 mph9.7 kmh 30.14 in1020.7 mb 0.01 in0.3 mm 0.06 in/hr1.5 mm/hr 0.11 in2.8 mm
08:00 AM 47.1°F8.4°C 39.9°F4.4°C 76% Calm Calm 4.0 mph6.4 kmh 30.14 in1020.7 mb 0.01 in0.3 mm 0.01 in/hr0.3 mm/hr 0.11 in2.8 mm
08:10 AM 47.3°F8.5°C 40.4°F4.7°C 77% 5.9 mph NW9.5 kmh NW 9.0 mph14.5 kmh 30.15 in1021.0 mb 0.00 in0.0 mm 0.00 in/hr0.0 mm/hr 0.11 in2.8 mm
08:20 AM 46.5°F8.1°C 40.0°F4.4°C 78% 5.5 mph WNW8.9 kmh WNW 9.0 mph14.5 kmh 30.15 in1021.0 mb 0.00 in0.0 mm 0.00 in/hr0.0 mm/hr 0.11 in2.8 mm
08:30 AM 47.4°F8.6°C 40.9°F4.9°C 78% 7.1 mph NW11.4 kmh NW 11.0 mph17.7 kmh 30.16 in1021.3 mb 0.00 in0.0 mm 0.00 in/hr0.0 mm/hr 0.11 in2.8 mm
08:40 AM 47.5°F8.6°C 41.3°F5.2°C 79% 2.7 mph NW4.3 kmh NW 8.0 mph12.9 kmh 30.16 in1021.3 mb 0.00 in0.0 mm 0.00 in/hr0.0 mm/hr 0.11 in2.8 mm
08:50 AM 48.7°F9.3°C 42.1°F5.6°C 78% 6.9 mph NW11.1 kmh NW 10.0 mph16.1 kmh 30.16 in1021.3 mb 0.00 in0.0 mm 0.00 in/hr0.0 mm/hr 0.11 in2.8 mm
09:00 AM 48.5°F9.2°C 42.3°F5.7°C 79% 5.8 mph NW9.3 kmh NW 9.0 mph14.5 kmh 30.17 in1021.7 mb 0.00 in0.0 mm 0.00 in/hr0.0 mm/hr 0.11 in2.8 mm
09:10 AM 51.0°F10.6°C 44.7°F7.1°C 79% 3.2 mph NW5.1 kmh NW 5.0 mph8.0 kmh 30.17 in1021.7 mb 0.00 in0.0 mm 0.00 in/hr0.0 mm/hr 0.11 in2.8 mm
09:20 AM 50.8°F10.4°C 44.5°F6.9°C 79% 6.9 mph NW11.1 kmh NW 8.0 mph12.9 kmh 30.17 in1021.7 mb 0.00 in0.0 mm 0.00 in/hr0.0 mm/hr 0.11 in2.8 mm
09:30 AM 52.0°F11.1°C 45.7°F7.6°C 79% 4.2 mph NW6.8 kmh NW 7.0 mph11.3 kmh 30.17 in1021.7 mb 0.00 in0.0 mm 0.00 in/hr0.0 mm/hr 0.11 in2.8 mm
09:40 AM 51.2°F10.7°C 45.2°F7.3°C 80% 4.2 mph WNW6.8 kmh WNW 10.0 mph16.1 kmh 30.17 in1021.7 mb 0.01 in0.3 mm 0.06 in/hr1.5 mm/hr 0.12 in3.0 mm
09:50 AM 51.5°F10.8°C 45.2°F7.3°C 79% 6.5 mph NW10.5 kmh NW 11.0 mph17.7 kmh 30.18 in1022.0 mb 0.00 in0.0 mm 0.00 in/hr0.0 mm/hr 0.12 in3.0 mm
10:00 AM 50.9°F10.5°C 44.7°F7.1°C 79% 2.8 mph W4.5 kmh W 7.0 mph11.3 kmh 30.18 in1022.0 mb 0.00 in0.0 mm 0.00 in/hr0.0 mm/hr 0.12 in3.0 mm
10:10 AM 50.1°F10.1°C 44.2°F6.8°C 80% 1.2 mph W1.9 kmh W 6.0 mph9.7 kmh 30.18 in1022.0 mb 0.00 in0.0 mm 0.00 in/hr0.0 mm/hr 0.12 in3.0 mm
10:20 AM 50.4°F10.2°C 44.5°F6.9°C 80% 3.8 mph W6.1 kmh W 11.0 mph17.7 kmh 30.18 in1022.0 mb 0.00 in0.0 mm 0.00 in/hr0.0 mm/hr 0.12 in3.0 mm
10:30 AM 52.8°F11.6°C 46.8°F8.2°C 80% 5.9 mph W9.5 kmh W 10.0 mph16.1 kmh 30.18 in1022.0 mb 0.00 in0.0 mm 0.00 in/hr0.0 mm/hr 0.12 in3.0 mm
10:40 AM 55.2°F12.9°C 48.8°F9.3°C 79% 6.5 mph WSW10.5 kmh WSW 12.0 mph19.3 kmh 30.19 in1022.4 mb 0.00 in0.0 mm 0.00 in/hr0.0 mm/hr 0.12 in3.0 mm
10:50 AM 52.5°F11.4°C 46.2°F7.9°C 79% 0.9 mph W1.4 kmh W 8.0 mph12.9 kmh 30.19 in1022.4 mb 0.00 in0.0 mm 0.00 in/hr0.0 mm/hr 0.12 in3.0 mm
11:00 AM 55.2°F12.9°C 48.5°F9.2°C 78% 6.2 mph WSW10.0 kmh WSW 13.0 mph20.9 kmh 30.19 in1022.4 mb 0.00 in0.0 mm 0.00 in/hr0.0 mm/hr 0.12 in3.0 mm
11:10 AM 54.8°F12.7°C 47.0°F8.3°C 75% 6.5 mph SW10.5 kmh SW 14.0 mph22.5 kmh 30.19 in1022.4 mb 0.01 in0.3 mm 0.06 in/hr1.5 mm/hr 0.13 in3.3 mm
11:20 AM 52.7°F11.5°C 46.0°F7.8°C 78% 7.0 mph SW11.3 kmh SW 13.0 mph20.9 kmh 30.20 in1022.7 mb 0.01 in0.3 mm 0.06 in/hr1.5 mm/hr 0.13 in3.3 mm
11:30 AM 51.9°F11.1°C 45.6°F7.6°C 79% 2.3 mph SW3.7 kmh SW 7.0 mph11.3 kmh 30.20 in1022.7 mb 0.00 in0.0 mm 0.00 in/hr0.0 mm/hr 0.13 in3.3 mm
11:40 AM 52.7°F11.5°C 46.0°F7.8°C 78% 4.9 mph SW7.9 kmh SW 9.0 mph14.5 kmh 30.20 in1022.7 mb 0.00 in0.0 mm 0.00 in/hr0.0 mm/hr 0.13 in3.3 mm
11:50 AM 54.6°F12.6°C 47.2°F8.4°C 76% 5.9 mph W9.5 kmh W 11.0 mph17.7 kmh 30.19 in1022.4 mb 0.00 in0.0 mm 0.00 in/hr0.0 mm/hr 0.13 in3.3 mm
12:00 PM 54.5°F12.5°C 47.1°F8.4°C 76% 4.7 mph SW7.6 kmh SW 9.0 mph14.5 kmh 30.19 in1022.4 mb 0.00 in0.0 mm 0.00 in/hr0.0 mm/hr 0.13 in3.3 mm
12:10 PM 54.5°F12.5°C 47.1°F8.4°C 76% 5.1 mph WSW8.2 kmh WSW 9.0 mph14.5 kmh 30.19 in1022.4 mb 0.00 in0.0 mm 0.00 in/hr0.0 mm/hr 0.13 in3.3 mm
12:20 PM 55.0°F12.8°C 47.9°F8.8°C 77% 3.7 mph WSW6.0 kmh WSW 8.0 mph12.9 kmh 30.19 in1022.4 mb 0.00 in0.0 mm 0.00 in/hr0.0 mm/hr 0.13 in3.3 mm
12:30 PM 54.4°F12.4°C 47.3°F8.5°C 77% 2.7 mph WSW4.3 kmh WSW 11.0 mph17.7 kmh 30.19 in1022.4 mb 0.00 in0.0 mm 0.00 in/hr0.0 mm/hr 0.13 in3.3 mm
12:40 PM 55.8°F13.2°C 47.7°F8.7°C 74% 8.7 mph WSW14.0 kmh WSW 14.0 mph22.5 kmh 30.19 in1022.4 mb 0.00 in0.0 mm 0.00 in/hr0.0 mm/hr 0.13 in3.3 mm
12:50 PM 56.9°F13.8°C 47.2°F8.4°C 70% 6.7 mph W10.8 kmh W 13.0 mph20.9 kmh 30.19 in1022.4 mb 0.00 in0.0 mm 0.00 in/hr0.0 mm/hr 0.13 in3.3 mm
01:00 PM 57.9°F14.4°C 47.0°F8.3°C 67% 4.6 mph SW7.4 kmh SW 7.0 mph11.3 kmh 30.19 in1022.4 mb 0.00 in0.0 mm 0.00 in/hr0.0 mm/hr 0.13 in3.3 mm
01:10 PM 57.7°F14.3°C 46.0°F7.8°C 65% 6.0 mph WSW9.7 kmh WSW 9.0 mph14.5 kmh 30.18 in1022.0 mb 0.00 in0.0 mm 0.00 in/hr0.0 mm/hr 0.13 in3.3 mm
01:20 PM 58.7°F14.8°C 46.1°F7.8°C 63% 5.5 mph WNW8.9 kmh WNW 11.0 mph17.7 kmh 30.19 in1022.4 mb 0.00 in0.0 mm 0.00 in/hr0.0 mm/hr 0.13 in3.3 mm
01:30 PM 58.1°F14.5°C 45.1°F7.3°C 62% 4.3 mph WSW6.9 kmh WSW 8.0 mph12.9 kmh 30.19 in1022.4 mb 0.00 in0.0 mm 0.00 in/hr0.0 mm/hr 0.13 in3.3 mm
01:40 PM 57.5°F14.2°C 44.6°F7.0°C 62% 6.2 mph SW10.0 kmh SW 10.0 mph16.1 kmh 30.19 in1022.4 mb 0.00 in0.0 mm 0.00 in/hr0.0 mm/hr 0.13 in3.3 mm
01:50 PM 58.0°F14.4°C 45.5°F7.5°C 63% 6.7 mph W10.8 kmh W 8.0 mph12.9 kmh 30.19 in1022.4 mb 0.00 in0.0 mm 0.00 in/hr0.0 mm/hr 0.13 in3.3 mm
02:00 PM 57.6°F14.2°C 45.1°F7.3°C 63% 4.2 mph SW6.8 kmh SW 10.0 mph16.1 kmh 30.19 in1022.4 mb 0.00 in0.0 mm 0.00 in/hr0.0 mm/hr 0.13 in3.3 mm
02:10 PM 57.7°F14.3°C 44.3°F6.8°C 61% 6.8 mph W10.9 kmh W 13.0 mph20.9 kmh 30.20 in1022.7 mb 0.00 in0.0 mm 0.00 in/hr0.0 mm/hr 0.13 in3.3 mm
02:20 PM 57.7°F14.3°C 43.9°F6.6°C 60% 7.5 mph WSW12.1 kmh WSW 13.0 mph20.9 kmh 30.20 in1022.7 mb 0.00 in0.0 mm 0.00 in/hr0.0 mm/hr 0.13 in3.3 mm
02:30 PM 57.3°F14.1°C 44.4°F6.9°C 62% 2.8 mph WSW4.5 kmh WSW 9.0 mph14.5 kmh 30.20 in1022.7 mb 0.00 in0.0 mm 0.00 in/hr0.0 mm/hr 0.13 in3.3 mm
02:40 PM 56.1°F13.4°C 44.9°F7.2°C 66% 6.8 mph SW10.9 kmh SW 10.0 mph16.1 kmh 30.20 in1022.7 mb 0.00 in0.0 mm 0.00 in/hr0.0 mm/hr 0.13 in3.3 mm
02:50 PM 57.2°F14.0°C 45.2°F7.3°C 64% Calm Calm -- 30.21 in1023.0 mb 0.00 in0.0 mm 0.00 in/hr0.0 mm/hr 0.13 in3.3 mm
03:00 PM 57.4°F14.1°C 43.2°F6.2°C 59% 5.6 mph SW9.0 kmh SW 22.0 mph35.4 kmh 30.21 in1023.0 mb 0.00 in0.0 mm 0.00 in/hr0.0 mm/hr 0.13 in3.3 mm
03:10 PM 57.8°F14.3°C 43.5°F6.4°C 59% 6.0 mph W9.7 kmh W 12.0 mph19.3 kmh 30.21 in1023.0 mb 0.00 in0.0 mm 0.00 in/hr0.0 mm/hr 0.13 in3.3 mm
03:20 PM 56.8°F13.8°C 43.5°F6.4°C 61% 6.6 mph SW10.6 kmh SW 14.0 mph22.5 kmh 30.21 in1023.0 mb 0.00 in0.0 mm 0.00 in/hr0.0 mm/hr 0.13 in3.3 mm
03:30 PM 56.4°F13.6°C 43.6°F6.4°C 62% 3.5 mph WNW5.6 kmh WNW 18.0 mph29.0 kmh 30.21 in1023.0 mb 0.00 in0.0 mm 0.00 in/hr0.0 mm/hr 0.13 in3.3 mm
03:40 PM 56.1°F13.4°C 42.0°F5.6°C 59% 3.5 mph WNW5.6 kmh WNW 9.0 mph14.5 kmh 30.21 in1023.0 mb 0.00 in0.0 mm 0.00 in/hr0.0 mm/hr 0.13 in3.3 mm
03:50 PM 56.2°F13.4°C 42.0°F5.6°C 59% 5.5 mph W8.9 kmh W 12.0 mph19.3 kmh 30.22 in1023.4 mb 0.00 in0.0 mm 0.00 in/hr0.0 mm/hr 0.13 in3.3 mm
04:00 PM 56.3°F13.5°C 42.6°F5.9°C 60% 4.4 mph WSW7.1 kmh WSW 7.0 mph11.3 kmh 30.22 in1023.4 mb 0.01 in0.3 mm 0.01 in/hr0.3 mm/hr 0.14 in3.6 mm
04:10 PM 56.8°F13.8°C 43.0°F6.1°C 60% 5.2 mph SW8.4 kmh SW 7.0 mph11.3 kmh 30.22 in1023.4 mb 0.00 in0.0 mm 0.00 in/hr0.0 mm/hr 0.14 in3.6 mm
04:20 PM 56.0°F13.3°C 42.8°F6.0°C 61% 4.9 mph WSW7.9 kmh WSW 5.0 mph8.0 kmh 30.23 in1023.7 mb 0.00 in0.0 mm 0.00 in/hr0.0 mm/hr 0.14 in3.6 mm
04:30 PM 55.3°F12.9°C 43.7°F6.5°C 65% 6.3 mph SW10.1 kmh SW 10.0 mph16.1 kmh 30.23 in1023.7 mb 0.00 in0.0 mm 0.00 in/hr0.0 mm/hr 0.14 in3.6 mm
04:40 PM 54.9°F12.7°C 43.7°F6.5°C 66% 2.9 mph WSW4.7 kmh WSW 4.0 mph6.4 kmh 30.24 in1024.0 mb 0.00 in0.0 mm 0.00 in/hr0.0 mm/hr 0.14 in3.6 mm
04:50 PM 54.3°F12.4°C 42.8°F6.0°C 65% 3.5 mph SW5.6 kmh SW 8.0 mph12.9 kmh 30.24 in1024.0 mb 0.00 in0.0 mm 0.00 in/hr0.0 mm/hr 0.14 in3.6 mm
05:00 PM 53.8°F12.1°C 42.7°F5.9°C 66% 3.7 mph W6.0 kmh W 12.0 mph19.3 kmh 30.24 in1024.0 mb 0.00 in0.0 mm 0.00 in/hr0.0 mm/hr 0.14 in3.6 mm
05:10 PM 53.9°F12.2°C 42.4°F5.8°C 65% 4.8 mph WSW7.7 kmh WSW 9.0 mph14.5 kmh 30.25 in1024.4 mb 0.00 in0.0 mm 0.00 in/hr0.0 mm/hr 0.14 in3.6 mm
05:20 PM 53.4°F11.9°C 41.9°F5.5°C 65% 4.2 mph WNW6.8 kmh WNW 10.0 mph16.1 kmh 30.25 in1024.4 mb 0.00 in0.0 mm 0.00 in/hr0.0 mm/hr 0.14 in3.6 mm
05:30 PM 53.0°F11.7°C 41.9°F5.5°C 66% 2.3 mph WNW3.7 kmh WNW 5.0 mph8.0 kmh 30.25 in1024.4 mb 0.00 in0.0 mm 0.00 in/hr0.0 mm/hr 0.14 in3.6 mm
05:40 PM 52.6°F11.4°C 42.3°F5.7°C 68% 0.1 mph WSW0.2 kmh WSW -- 30.26 in1024.7 mb 0.00 in0.0 mm 0.00 in/hr0.0 mm/hr 0.14 in3.6 mm
05:50 PM 52.0°F11.1°C 42.1°F5.6°C 69% 1.6 mph W2.6 kmh W 9.0 mph14.5 kmh 30.26 in1024.7 mb 0.00 in0.0 mm 0.00 in/hr0.0 mm/hr 0.14 in3.6 mm
06:00 PM 51.5°F10.8°C 41.7°F5.4°C 69% Calm Calm -- 30.27 in1025.1 mb 0.00 in0.0 mm 0.00 in/hr0.0 mm/hr 0.14 in3.6 mm
06:10 PM 50.9°F10.5°C 41.4°F5.2°C 70% 2.0 mph W3.2 kmh W 4.0 mph6.4 kmh 30.27 in1025.1 mb 0.00 in0.0 mm 0.00 in/hr0.0 mm/hr 0.14 in3.6 mm
06:20 PM 50.3°F10.2°C 41.2°F5.1°C 71% Calm Calm -- 30.27 in1025.1 mb 0.00 in0.0 mm 0.00 in/hr0.0 mm/hr 0.14 in3.6 mm
06:30 PM 49.8°F9.9°C 40.8°F4.9°C 71% Calm Calm -- 30.27 in1025.1 mb 0.00 in0.0 mm 0.00 in/hr0.0 mm/hr 0.14 in3.6 mm
06:40 PM 49.5°F9.7°C 40.8°F4.9°C 72% Calm Calm -- 30.27 in1025.1 mb 0.00 in0.0 mm 0.00 in/hr0.0 mm/hr 0.14 in3.6 mm
06:50 PM 49.3°F9.6°C 40.7°F4.8°C 72% Calm Calm -- 30.28 in1025.4 mb 0.00 in0.0 mm 0.00 in/hr0.0 mm/hr 0.14 in3.6 mm
07:00 PM 48.9°F9.4°C 40.2°F4.6°C 72% Calm Calm -- 30.28 in1025.4 mb 0.00 in0.0 mm 0.00 in/hr0.0 mm/hr 0.14 in3.6 mm
07:10 PM 48.3°F9.1°C 40.0°F4.4°C 73% Calm Calm -- 30.29 in1025.7 mb 0.00 in0.0 mm 0.00 in/hr0.0 mm/hr 0.14 in3.6 mm
07:20 PM 47.8°F8.8°C 39.9°F4.4°C 74% Calm Calm -- 30.29 in1025.7 mb 0.00 in0.0 mm 0.00 in/hr0.0 mm/hr 0.14 in3.6 mm
07:30 PM 47.4°F8.6°C 39.9°F4.4°C 75% Calm Calm -- 30.29 in1025.7 mb 0.00 in0.0 mm 0.00 in/hr0.0 mm/hr 0.14 in3.6 mm
07:40 PM 47.1°F8.4°C 39.6°F4.2°C 75% 3.2 mph NW5.1 kmh NW 5.0 mph8.0 kmh 30.29 in1025.7 mb 0.00 in0.0 mm 0.00 in/hr0.0 mm/hr 0.14 in3.6 mm
07:50 PM 46.9°F8.3°C 39.7°F4.3°C 76% Calm Calm -- 30.30 in1026.1 mb 0.00 in0.0 mm 0.00 in/hr0.0 mm/hr 0.14 in3.6 mm
08:00 PM 46.7°F8.2°C 39.5°F4.2°C 76% Calm Calm -- 30.30 in1026.1 mb 0.00 in0.0 mm 0.00 in/hr0.0 mm/hr 0.14 in3.6 mm
08:10 PM 46.3°F7.9°C 39.5°F4.2°C 77% 3.0 mph NW4.8 kmh NW 4.0 mph6.4 kmh 30.30 in1026.1 mb 0.00 in0.0 mm 0.00 in/hr0.0 mm/hr 0.14 in3.6 mm
08:20 PM 46.0°F7.8°C 39.5°F4.2°C 78% 1.8 mph NW2.9 kmh NW 4.0 mph6.4 kmh 30.30 in1026.1 mb 0.00 in0.0 mm 0.00 in/hr0.0 mm/hr 0.14 in3.6 mm
08:30 PM 45.8°F7.7°C 39.7°F4.3°C 79% 0.3 mph NW0.5 kmh NW -- 30.31 in1026.4 mb 0.00 in0.0 mm 0.00 in/hr0.0 mm/hr 0.14 in3.6 mm
08:40 PM 45.6°F7.6°C 39.5°F4.2°C 79% 2.9 mph NW4.7 kmh NW 4.0 mph6.4 kmh 30.31 in1026.4 mb 0.00 in0.0 mm 0.00 in/hr0.0 mm/hr 0.14 in3.6 mm
08:50 PM 45.6°F7.6°C 39.8°F4.3°C 80% 4.2 mph NW6.8 kmh NW 6.0 mph9.7 kmh 30.31 in1026.4 mb 0.00 in0.0 mm 0.00 in/hr0.0 mm/hr 0.14 in3.6 mm
09:00 PM 45.5°F7.5°C 39.7°F4.3°C 80% 3.8 mph NW6.1 kmh NW 6.0 mph9.7 kmh 30.31 in1026.4 mb 0.00 in0.0 mm 0.00 in/hr0.0 mm/hr 0.14 in3.6 mm
09:10 PM 45.6°F7.6°C 40.1°F4.5°C 81% 4.5 mph NW7.2 kmh NW 7.0 mph11.3 kmh 30.31 in1026.4 mb 0.00 in0.0 mm 0.00 in/hr0.0 mm/hr 0.14 in3.6 mm
09:20 PM 45.5°F7.5°C 40.0°F4.4°C 81% 4.8 mph WNW7.7 kmh WNW 7.0 mph11.3 kmh 30.31 in1026.4 mb 0.00 in0.0 mm 0.00 in/hr0.0 mm/hr 0.14 in3.6 mm
09:30 PM 45.6°F7.6°C 40.1°F4.5°C 81% 1.5 mph NW2.4 kmh NW 5.0 mph8.0 kmh 30.31 in1026.4 mb 0.00 in0.0 mm 0.00 in/hr0.0 mm/hr 0.14 in3.6 mm
09:40 PM 45.6°F7.6°C 40.1°F4.5°C 81% 2.7 mph WNW4.3 kmh WNW 4.0 mph6.4 kmh 30.31 in1026.4 mb 0.00 in0.0 mm 0.00 in/hr0.0 mm/hr 0.14 in3.6 mm
09:50 PM 45.7°F7.6°C 40.2°F4.6°C 81% 2.6 mph NW4.2 kmh NW 4.0 mph6.4 kmh 30.31 in1026.4 mb 0.00 in0.0 mm 0.00 in/hr0.0 mm/hr 0.14 in3.6 mm
10:00 PM 45.8°F7.7°C 40.3°F4.6°C 81% 2.7 mph NW4.3 kmh NW 6.0 mph9.7 kmh 30.31 in1026.4 mb 0.00 in0.0 mm 0.00 in/hr0.0 mm/hr 0.14 in3.6 mm
10:10 PM 45.9°F7.7°C 40.1°F4.5°C 80% Calm Calm -- 30.32 in1026.8 mb 0.00 in0.0 mm 0.00 in/hr0.0 mm/hr 0.14 in3.6 mm
10:20 PM 45.7°F7.6°C 39.9°F4.4°C 80% 1.7 mph NW2.7 kmh NW 4.0 mph6.4 kmh 30.32 in1026.8 mb 0.00 in0.0 mm 0.00 in/hr0.0 mm/hr 0.14 in3.6 mm
10:30 PM 45.5°F7.5°C 39.7°F4.3°C 80% 2.6 mph NNW4.2 kmh NNW 5.0 mph8.0 kmh 30.31 in1026.4 mb 0.00 in0.0 mm 0.00 in/hr0.0 mm/hr 0.14 in3.6 mm
10:40 PM 45.3°F7.4°C 39.5°F4.2°C 80% Calm Calm -- 30.31 in1026.4 mb 0.00 in0.0 mm 0.00 in/hr0.0 mm/hr 0.14 in3.6 mm
10:50 PM 45.0°F7.2°C 39.2°F4.0°C 80% Calm Calm -- 30.31 in1026.4 mb 0.00 in0.0 mm 0.00 in/hr0.0 mm/hr 0.14 in3.6 mm
11:00 PM 44.8°F7.1°C 39.0°F3.9°C 80% 0.2 mph N0.3 kmh N -- 30.31 in1026.4 mb 0.00 in0.0 mm 0.00 in/hr0.0 mm/hr 0.14 in3.6 mm
11:10 PM 44.4°F6.9°C 38.6°F3.7°C 80% 0.8 mph NNW1.3 kmh NNW 4.0 mph6.4 kmh 30.30 in1026.1 mb 0.00 in0.0 mm 0.00 in/hr0.0 mm/hr 0.14 in3.6 mm
11:20 PM 44.1°F6.7°C 38.3°F3.5°C 80% 0.6 mph N1.0 kmh N 1.0 mph1.6 kmh 30.31 in1026.4 mb 0.00 in0.0 mm 0.00 in/hr0.0 mm/hr 0.14 in3.6 mm
11:30 PM 43.9°F6.6°C 38.1°F3.4°C 80% 2.6 mph NNW4.2 kmh NNW 4.0 mph6.4 kmh 30.31 in1026.4 mb 0.00 in0.0 mm 0.00 in/hr0.0 mm/hr 0.14 in3.6 mm
11:40 PM 43.9°F6.6°C 38.1°F3.4°C 80% 3.2 mph NNW5.1 kmh NNW 4.0 mph6.4 kmh 30.31 in1026.4 mb 0.00 in0.0 mm 0.00 in/hr0.0 mm/hr 0.14 in3.6 mm
11:50 PM 43.8°F6.6°C 38.0°F3.3°C 80% 1.2 mph NNW1.9 kmh NNW 4.0 mph6.4 kmh 30.31 in1026.4 mb 0.00 in0.0 mm 0.00 in/hr0.0 mm/hr 0.14 in3.6 mm